This is the latest recevied weather packets stored in our database for station/object ZL2IH. If no packets are shown the sender has not sent any weather packets the latest 10 day(s).
| Time | Temp. | Humidity | Pressure | Rain* | Wind** | Luminosity | Snow |
|---|---|---|---|---|---|---|---|
| 1777538417 | 10° C | 100% | 1035.5 hPa | 0 mm | - | - | - |
| 1777537818 | 10° C | 100% | 1035.4 hPa | 0 mm | - | - | - |
| 1777536618 | 10° C | 100% | 1035.3 hPa | 0 mm | - | - | - |
| 1777534218 | 10.56° C | 100% | 1035 hPa | 0 mm | - | - | - |
| 1777533618 | 10.56° C | 100% | 1035 hPa | 0 mm | - | - | - |
| 1777522217 | 13.89° C | 100% | 1033.9 hPa | 0 mm | - | - | - |
| 1777521617 | 14.44° C | 100% | 1033.8 hPa | 0 mm | - | - | - |
| 1777519217 | 15° C | 100% | 1033.7 hPa | 0 mm | - | - | - |
| 1777514417 | 15° C | 100% | 1033.7 hPa | 0 mm | - | - | - |
| 1777513217 | 15° C | 100% | 1033.8 hPa | 0 mm | - | - | - |
| 1777507817 | 13.89° C | 100% | 1034.4 hPa | 0 mm | - | - | - |
| 1777506018 | 13.89° C | 100% | 1034.3 hPa | 0 mm | - | - | - |
| 1777504217 | 13.33° C | 100% | 1034.2 hPa | 0 mm | - | - | - |
| 1777503638 | 13.33° C | 100% | 1034 hPa | 0 mm | - | - | - |
| 1777498219 | 12.78° C | 100% | 1033.4 hPa | 0 mm | - | - | - |
| 1777497619 | 12.78° C | 100% | 1033.4 hPa | 0 mm | - | - | - |
| 1777493438 | 11.11° C | 100% | 1032.4 hPa | 0 mm | - | - | - |
| 1777489218 | 11.11° C | 100% | 1031.4 hPa | 0 mm | - | - | - |
| 1777488619 | 10.56° C | 100% | 1031.4 hPa | 0 mm | - | - | - |
| 1777486218 | 10° C | 100% | 1030.8 hPa | 0 mm | - | - | - |
| 1777483818 | 10° C | 100% | 1030.5 hPa | 0 mm | - | - | - |
| 1777479639 | 10.56° C | 100% | 1030.1 hPa | 0 mm | - | - | - |
| 1777476658 | 11.11° C | 100% | 1029.8 hPa | 0 mm | - | - | - |
| 1777475418 | 11.11° C | 100% | 1029.6 hPa | 0 mm | - | - | - |
| 1777474818 | 11.67° C | 100% | 1029.6 hPa | 0 mm | - | - | - |
* Rain latest hour (hover to see other rain measurements)
** Current wind speed in m/s (hover to see current wind gust speed)